Regional Weather Roundup
Issued by NWS Portland, ME

Home | Current Version | Previous Version | Text Only | Print | Product List | Glossary On
Versions: 1 2 3 4 5 6 7 8 9 10 11 12 13 14 15 16 17 18 19 20 21 22 23 24 25 26 27 28 29 30 31 32 33 34 35 36 37 38 39 40 41 42 43 44 45 46 47 48 49 50
000
ASUS41 KGYX 311510
RWRGYX
WEATHER ROUNDUP FOR MAINE AND NEW HAMPSHIRE
NATIONAL WEATHER SERVICE GRAY ME
1100 AM EDT MON AUG 31 2015

MEZ002-005-006-010-012-015-018-020-021-024-026-027-029-311600-
MAINE

CITY           SKY/WX    TMP DP  RH WIND       PRES   REMARKS
PORTLAND       SUNNY     80  62  54 W13       29.91F
SANFORD        SUNNY     81  59  47 W12       29.94F
BAR HARBOR     SUNNY     79  64  61 W9        29.86F
WISCASSET      SUNNY     79  62  56 VRB5      29.90F
ROCKLAND       SUNNY     79  63  57 W7        29.87F
FRYEBURG       SUNNY     79  66  64 VRB7      29.92F
LEWISTONAUBURN SUNNY     79 N/A N/A SW12      29.91S
AUGUSTA        SUNNY     76  60  57 SW12G20   29.89F
WATERVILLE     SUNNY     75  61  60 SW7       29.85F
BANGOR         MOSUNNY   78  60  53 SW9       29.85F
GREENVILLE       N/A     69  61  75 VRB6      29.84F
MILLINOCKET    CLOUDY    74  61  63 SW8       29.82F
HOULTON        MOSUNNY   75  60  59 SW18G25   29.76F
PRESQUE ISLE   PTSUNNY   72  57  60 W14G22    29.73F
FRENCHVILLE    PTSUNNY   71  59  65 W24G30    29.70F
CARIBOU        CLOUDY    71  60  68 SW15G21   29.71F
$$

NHZ002-005-008-009-011-012-014-311600-
NEW HAMPSHIRE

CITY           SKY/WX    TMP DP  RH WIND       PRES   REMARKS
PORTSMOUTH     MOSUNNY   82  62  51 W10G17    29.93F
ROCHESTER      SUNNY     80  62  54 W8        29.94F
NASHUA         SUNNY     83  64  52 MISG        N/A
MANCHESTER     MOSUNNY   82  62  50 W9        29.95S
CONCORD        SUNNY     82  63  52 W9        29.95F
LACONIA        SUNNY     77  63  61 SW12G18   29.94F
PLYMOUTH       FAIR      77  64  63 W7        29.94F
BERLIN         CLOUDY    73  60  63 MISG      29.93F
WHITEFIELD     CLOUDY    74  61  63 SW9       29.95F
JAFFREY        SUNNY     77  63  61 W9        30.02S
KEENE          SUNNY     79  63  57 S5        29.99F
LEBANON        MOSUNNY   79  64  60 S13       29.95F
MT WASHINGTON  FOG       50  50 100 W58G69      N/A  VSB 0
$$

VTZ005-007-008-311600-
VERMONT

CITY           SKY/WX    TMP DP  RH WIND       PRES   REMARKS
ST JOHNSBURY     N/A     73  61  65 MISG      29.92F
MONTPELIER     PTSUNNY   75  61  61 W9        30.00S
BURLINGTON     PTSUNNY   77  64  64 S9        29.94S
$$

MAZ007-012-024-CTZ003-RIZ002-NYZ038-NYZ072-311600-
SOUTHERN NEW ENGLAND AND NY

CITY           SKY/WX    TMP DP  RH WIND       PRES   REMARKS
BOSTON         MOSUNNY   84  64  50 W10G16    29.96F
WORCESTER      MOSUNNY   78  62  57 W15       30.02S
NANTUCKET      PTSUNNY   78  69  73 W20G25    29.99S
PROVIDENCE     PTSUNNY   85  66  53 W9        29.99S
HARTFORD       PTSUNNY   79  69  71 SW8       29.99F
ALBANY         MOSUNNY   79  67  66 SW6       30.01S
NEW YORK CITY  CLOUDY    82  67  60 NW7       30.03S
$$

ANZ081-ANZ082-ANZ150-NHZ014-MEZ023>029-311600-
COASTAL MARINE OBSERVATIONS

STATION/POSITION TIME  TEMP    WIND        PRES    WAVE
                       AIR SEA DIR/SP/G            HT/PER
                 (UTC) (F)     (DEG/KT/KT) (MB)    (FT/S)
MOUNT DESERT ROC 1500   60     240/ 14/ 14 1012.0F
MATINICUS ROCK   1400          260/ 16/ 17 1012.3S
ISLE OF SHOALS   1500   76     260/  7/  8 1013.4F
CASHES LEDGE BUO 1450   69                 1013.0R   2/10
GEORGES BANK BUO 1450   72 68  240/ 12/ 12 1014.7F   2/10
$$

.............KEY..............
   WCI - WIND CHILL
   TC  - TEMPERATURE IN CELSIUS
   VSB - VISIBILITY IN MILES
   HX  - HEAT INDEX
   FAIR- INDICATES FEW OR NO CLOUDS BELOW 12,000 FT, WITH NO
         SIGNIFICANT WEATHER AND/OR OBSTRUCTIONS TO VISIBILITY.




USA.gov is the U.S. government's official web portal to all federal, state and local government web resources and services.